| time (UTC) | temp C | wind direction | speed KPH | gust KPH | rain 1hr cm | rain 24hr cm | rain mn cm | humidity % | barometer mb |
| 20260505224531 | 23 | 287 | 16.1 | 22.5 | 0.00 | 0.00 | 0.00 | 46 | |
| 20260505223036 | 23 | 287 | 16.1 | 22.5 | 0.00 | 0.00 | 0.00 | 46 | |
| 20260505221531 | 23 | 288 | 14.5 | 22.5 | 0.00 | 0.00 | 0.00 | 46 | |
| 20260505214646 | 23 | 288 | 12.9 | 20.9 | 0.00 | 0.00 | 0.00 | 46 | |
| 20260505211530 | 23 | 292 | 12.9 | 22.5 | 0.00 | 0.00 | 0.00 | 46 | |
| 20260505210029 | 23 | 287 | 11.3 | 17.7 | 0.00 | 0.00 | 0.00 | 46 | |
| 20260505204531 | 23 | 286 | 12.9 | 19.3 | 0.00 | 0.00 | 0.00 | 47 | |
| 20260505203032 | 22 | 287 | 11.3 | 19.3 | 0.00 | 0.00 | 0.00 | 47 | |
| 20260505201528 | 22 | 285 | 12.9 | 25.7 | 0.00 | 0.00 | 0.00 | 47 | |
| 20260505200031 | 22 | 285 | 9.7 | 17.7 | 0.00 | 0.00 | 0.00 | 48 | |
| 20260505193030 | 21 | 277 | 12.9 | 24.1 | 0.00 | 0.00 | 0.00 | 51 | |
| 20260505191531 | 21 | 288 | 14.5 | 22.5 | 0.00 | 0.00 | 0.00 | 51 | |
| 20260505190030 | 21 | 282 | 14.5 | 27.4 | 0.00 | 0.00 | 0.00 | 53 | |
| 20260505184606 | 20 | 277 | 12.9 | 25.7 | 0.00 | 0.00 | 0.00 | 55 | |
| 20260505183103 | 20 | 286 | 16.1 | 27.4 | 0.00 | 0.00 | 0.00 | 55 | |
| 20260505181529 | 19 | 287 | 16.1 | 27.4 | 0.00 | 0.00 | 0.00 | 57 | |
| 20260505180104 | 19 | 282 | 16.1 | 25.7 | 0.00 | 0.00 | 0.00 | 58 | |
| 20260505174607 | 18 | 285 | 16.1 | 24.1 | 0.00 | 0.00 | 0.00 | 59 | |
| 20260505173029 | 18 | 284 | 14.5 | 24.1 | 0.00 | 0.00 | 0.00 | 61 | |
| 20260505171531 | 17 | 278 | 12.9 | 24.1 | 0.00 | 0.00 | 0.00 | 63 | |
| 20260505170028 | 17 | 286 | 14.5 | 22.5 | 0.00 | 0.00 | 0.00 | 65 | |
| 20260505164530 | 16 | 288 | 14.5 | 22.5 | 0.00 | 0.00 | 0.00 | 67 | |
| 20260505163030 | 16 | 279 | 12.9 | 22.5 | 0.00 | 0.00 | 0.00 | 70 | |
| 20260505161530 | 15 | 288 | 14.5 | 22.5 | 0.00 | 0.00 | 0.00 | 72 | |
| 20260505153028 | 13 | 279 | 3.2 | 8.0 | 0.00 | 0.00 | 0.00 | 83 | |
| 20260505151532 | 12 | 247 | 1.6 | 6.4 | 0.00 | 0.00 | 0.00 | 86 | |
| 20260505150104 | 11 | 135 | 1.6 | 4.8 | 0.00 | 0.00 | 0.00 | 88 | |
| 20260505124530 | 10 | 276 | 3.2 | 6.4 | 0.00 | 0.00 | 0.00 | 87 | |
| 20260505123106 | 10 | 235 | 1.6 | 8.0 | 0.00 | 0.00 | 0.00 | 86 | |
| 20260505120030 | 10 | 219 | 3.2 | 6.4 | 0.00 | 0.00 | 0.00 | 84 | |
| 20260505114531 | 11 | 270 | 1.6 | 8.0 | 0.00 | 0.00 | 0.00 | 84 | |
| 20260505101531 | 13 | 250 | 3.2 | 8.0 | 0.00 | 0.00 | 0.00 | 80 | |
| 20260505100107 | 13 | 245 | 4.8 | 11.3 | 0.00 | 0.00 | 0.00 | 80 | |
| 20260505093030 | 14 | 237 | 4.8 | 12.9 | 0.00 | 0.00 | 0.00 | 78 | |
| 20260505091529 | 13 | 267 | 8.0 | 19.3 | 0.00 | 0.00 | 0.00 | 79 | |
| 20260505090056 | 13 | 259 | 8.0 | 14.5 | 0.00 | 0.00 | 0.00 | 79 | |
| 20260505084531 | 13 | 242 | 6.4 | 11.3 | 0.00 | 0.00 | 0.00 | 77 | |
| 20260505083029 | 14 | 216 | 4.8 | 6.4 | 0.00 | 0.00 | 0.00 | 75 | |
| 20260505081530 | 15 | 242 | 6.4 | 11.3 | 0.00 | 0.00 | 0.00 | 74 | |
| 20260505080029 | 15 | 244 | 6.4 | 12.9 | 0.00 | 0.00 | 0.00 | 73 | |
| 20260505074530 | 15 | 242 | 6.4 | 11.3 | 0.00 | 0.00 | 0.00 | 72 | |
| 20260505073031 | 15 | 245 | 6.4 | 12.9 | 0.00 | 0.00 | 0.00 | 70 | |
| 20260505071530 | 15 | 266 | 3.2 | 11.3 | 0.00 | 0.00 | 0.00 | 69 | |
| 20260505061532 | 16 | 258 | 8.0 | 19.3 | 0.00 | 0.00 | 0.00 | 63 | |
| 20260505060029 | 16 | 248 | 9.7 | 14.5 | 0.00 | 0.00 | 0.00 | 61 | |
| 20260505054530 | 17 | 247 | 8.0 | 12.9 | 0.00 | 0.00 | 0.00 | 59 | |
| 20260505053106 | 17 | 230 | 6.4 | 14.5 | 0.00 | 0.00 | 0.00 | 59 | |
| 20260505051531 | 17 | 210 | 8.0 | 14.5 | 0.00 | 0.00 | 0.00 | 57 | |
| 20260505041638 | 18 | 249 | 6.4 | 11.3 | 0.00 | 0.00 | 0.00 | 54 | |
| 20260505040107 | 19 | 253 | 8.0 | 14.5 | 0.00 | 0.00 | 0.00 | 54 | |
| 20260505034605 | 19 | 252 | 11.3 | 24.1 | 0.00 | 0.00 | 0.00 | 55 | |
| 20260505033030 | 19 | 248 | 8.0 | 19.3 | 0.00 | 0.00 | 0.00 | 56 | |
| 20260505031527 | 20 | 254 | 8.0 | 14.5 | 0.00 | 0.00 | 0.00 | 55 | |
| 20260505030032 | 20 | 261 | 8.0 | 16.1 | 0.00 | 0.00 | 0.00 | 54 | |
| 20260505024531 | 21 | 280 | 9.7 | 14.5 | 0.00 | 0.00 | 0.00 | 52 | |
| 20260505023030 | 22 | 271 | 11.3 | 16.1 | 0.00 | 0.00 | 0.00 | 50 | |
| 20260505021530 | 22 | 280 | 12.9 | 24.1 | 0.00 | 0.00 | 0.00 | 49 | |
| 20260505020029 | 22 | 287 | 14.5 | 22.5 | 0.00 | 0.00 | 0.00 | 48 | |
| 20260505014530 | 23 | 287 | 14.5 | 24.1 | 0.00 | 0.00 | 0.00 | 46 | |
| 20260505013030 | 23 | 284 | 17.7 | 29.0 | 0.00 | 0.00 | 0.00 | 45 | |
| 20260505011530 | 24 | 283 | 16.1 | 27.4 | 0.00 | 0.00 | 0.00 | 44 | |
| 20260505010032 | 25 | 284 | 17.7 | 29.0 | 0.00 | 0.00 | 0.00 | 42 | |
| 20260505004529 | 25 | 285 | 19.3 | 33.8 | 0.00 | 0.00 | 0.00 | 42 | |
| 20260505003103 | 25 | 286 | 17.7 | 27.4 | 0.00 | 0.00 | 0.00 | 42 | |
| 20260505001531 | 25 | 286 | 16.1 | 27.4 | 0.00 | 0.00 | 0.00 | 41 | |
| 20260505000029 | 26 | 283 | 17.7 | 29.0 | 0.00 | 0.00 | 0.00 | 40 | |
| 20260504234529 | 26 | 283 | 17.7 | 29.0 | 0.00 | 0.00 | 0.00 | 41 | |
| 20260504233030 | 26 | 289 | 16.1 | 25.7 | 0.00 | 0.00 | 0.00 | 41 | |
| 20260504231529 | 26 | 294 | 14.5 | 24.1 | 0.00 | 0.00 | 0.00 | 40 | |
| 20260504230149 | 26 | 294 | 16.1 | 25.7 | 0.00 | 0.00 | 0.00 | 39 |